Flag for Germany Weather past 2 weeks in Greifswald, Mecklenburg-Western Pomerania, Germany

Now
46 °F

Overcast.


Feels Like: 44 °F
Forecast: 37 / 50 °F
Wind: 3 mph from South

Location: Greifswald

Current Time: Mar 27, 2015 at 11:48:39 AM

Latest Report: Mar 27, 2015 at 11:00 AM


Visibility: 6 mi

Pressure: 29.85 "Hg

Humidity: 74%

Dew point: 38 °F

Location of GreifswaldLocation

Historic Weather in Greifswald — Graph

°F

Greifswald temperature yesterday

Maximum temperature yesterday: 49 °F (at 8:00 AM)
Minimum temperature yesterday: 41 °F (at 11:00 PM)
Average temperature yesterday: 44 °F

Past Weeks' High & Low Weather Summary

 TemperatureHumidityPressure
High60 °F (Mar 17, 4:00 PM)100% (Mar 25, 6:00 AM)30.60 "Hg (Mar 25, 6:00 AM)
Low29 °F (Mar 19, 6:00 AM)21% (Mar 18, 12:00 PM)29.65 "Hg (Mar 26, 6:00 AM)
Average41 °F75%30.24 "Hg
* Reported Mar 12 9:00 AM — Mar 27 9:00 AM, Greifswald, Weather by CustomWeather, © 2015

Note: Actual official high and low records may vary slightly from our data, if they occured in-between our weather recording intervals... More about our weather records

Advertising

Greifswald weather history for previous 24 hours

 ConditionsComfort  
Time TempWeatherWind HumidityBarometerVisibility
9:00 AM
Fri, Mar 27
42 °FLight rain. Overcast.3 mph85%29.83 "Hg5 mi
8:00 AM41 °FOvercast.2 mph87%29.82 "Hg5 mi
7:00 AM39 °FFog.2 mph91%29.80 "Hg4 mi
6:00 AM39 °FFog.1 mph91%29.79 "Hg4 mi
5:00 AM40 °FOvercast.1 mph90%29.78 "Hg5 mi
3:00 AM40 °FOvercast.2 mph88%29.77 "Hg6 mi
2:00 AM41 °FOvercast.2 mph85%29.77 "Hg7 mi
1:00 AM41 °FOvercast.2 mph85%29.77 "Hg8 mi
12:00 AM41 °FOvercast.2 mph84%29.77 "Hg9 mi
11:00 PM
Thu, Mar 26
41 °FOvercast.2 mph83%29.77 "Hg10 mi
10:00 PM41 °FOvercast.2 mph81%29.77 "Hg11 mi
9:00 PM41 °FOvercast.2 mph80%29.77 "Hg15 mi
8:00 PM42 °FOvercast.2 mph78%29.76 "Hg16 mi
7:00 PM42 °FOvercast.2 mph77%29.76 "Hg19 mi
6:00 PM42 °FLight rain. Overcast.3 mph76%29.75 "Hg16 mi
5:00 PM42 °FOvercast.5 mph76%29.73 "Hg16 mi
3:00 PM44 °FOvercast.5 mph77%29.72 "Hg12 mi
2:00 PM45 °FOvercast.5 mph79%29.71 "Hg6 mi
1:00 PM46 °FLight rain. Overcast.5 mph80%29.71 "Hg4 mi
12:00 PM46 °FLight rain. Overcast.3 mph84%29.70 "Hg4 mi
11:00 AM45 °FLight rain. Overcast.5 mph85%29.70 "Hg3 mi
Weather by CustomWeather, © 2015

See weather overviewHow to use our weather pages